Miscellaneous Local Product
Issued by NWS North Platte, NE

Home | Current Version | Previous Version | Graphics & Text | Print | Product List | Glossary On
Versions: 1 2 3 4 5 6 7 8 9 10 11 12 13 14 15 16 17 18 19 20 21 22 23 24 25 26 27 28 29 30 31 32 33 34 35 36 37 38 39 40 41 42 43 44 45 46 47 48 49 50
000
AXUS43 KLBF 020610
MISLBF


WESTERN AND NORTH CENTRAL NEBRASKA HOURLY WEATHER ROUNDUP
NATIONAL WEATHER SERVICE NORTH PLATTE NE
100 AM CDT TUE JUN 02 2015

***STATIONS NOT REPORTING VARIABLES SUCH AS SKY/WEATHER OR
PRESSURE ARE PROVIDED BY THE NEBRASKA DEPARTMENT OF
ROADS...RAWS...AND APRS NETWORKS...AND ARE NOT UNDER
NATIONAL WEATHER SERVICE QUALITY CONTROL***

...OBSERVATIONS IN AND NEAR THE EASTERN PANHANDLE OF NEBRASKA...

CITY           SKY/WX    TMP DP  RH WIND       PRES   REMARKS
PINE RIDGE     CLOUDY    68  51  54 SW9       29.90S
CHADRON        CLOUDY    67  52  58 S12       29.89F
ALLIANCE       CLOUDY    60  56  86 S8        29.94R
SIDNEY         CLOUDY    58  55  90 S9        30.01R THUNDER
WHITECLAY        N/A     69  50  50 S18         N/A
CRESCENT LAKE    N/A     63  55  75 S7          N/A
BIG SPRINGS      N/A     63  57  82 E5          N/A
$$

...OBSERVATIONS IN NORTH CENTRAL NEBRASKA...

CITY           SKY/WX    TMP DP  RH WIND       PRES   REMARKS
VALENTINE      CLOUDY    67  60  78 S15G25    29.87F
THEDFORD       LGT RAIN  67  58  70 SW17G24   29.94F
AINSWORTH      CLOUDY    65  60  84 S18G24    29.91F
O`NEILL        CLOUDY    65  59  79 S13       29.97F
ORD            CLOUDY    64  57  78 SE8       29.99S
BROKEN BOW     CLOUDY    64  59  83 SW12      30.04R
BROWNLEE         N/A     69  63  79 SE25        N/A
VALENTINE NWR    N/A     66  63  89 S16         N/A
SPRINGVIEW       N/A     66  60  80 S6G20       N/A
HALSEY           N/A     66  61  84 S10G17      N/A
NEWPORT          N/A     67  61  81 S18         N/A
SARGENT          N/A     62  58  86 CALM        N/A
CHAMBERS         N/A     64  58  82 S6G14       N/A
EWING            N/A     63  57  82 S3          N/A
$$

...OBSERVATIONS IN SOUTHWEST NEBRASKA AND FAR NORTHEAST COLORADO...

CITY           SKY/WX    TMP DP  RH WIND       PRES   REMARKS
WRAY           TSTM      64  64 100 E21       29.99F
IMPERIAL       TSTM      59  57  93 S7        30.05R
OGALLALA       CLOUDY    63  57  82 E10       29.97F
NORTH PLATTE   LGT RAIN  63  57  81 NW9       30.02F
MCCOOK         CLOUDY    66  56  70 N16G31    30.04R THUNDER
LEXINGTON      CLOUDY    64  59  85 S10       30.01R
PAXTON           N/A     63  58  83 NE3         N/A
GOTHENBURG       N/A     64  58  82 W3          N/A
CALLAWAY         N/A     64  61  91 S9          N/A
$$

...NORTH PLATTE AREA...

CITY           SKY/WX    TMP DP  RH WIND       PRES   REMARKS
AIRPORT        LGT RAIN  63  57  81 NW9       30.02F
DOWNTOWN         N/A     61  59  94 SE8G20      N/A
$$

...SOME WEATHER OBSERVATIONS FROM AROUND THE REGION...

CITY           SKY/WX    TMP DP  RH WIND       PRES   REMARKS
DENVER         PTCLDY    65  47  52 SW14      30.00F
LARAMIE        PTCLDY    48  44  86 CALM      30.10S
CHEYENNE       MOCLDY    58  48  69 NE6       30.08R
SCOTTSBLUFF    CLOUDY    60  55  83 NE3       29.98R
RAPID CITY     CLOUDY    65  55  70 E9        29.82F
PIERRE         CLOUDY    69  60  73 SE12G21   29.81F
WINNER         FAIR      68  58  70 S20G26    29.88F
SIOUX FALLS    MOCLDY    64  50  60 S13       30.01S
OMAHA          PTCLDY    62  54  74 S10       30.08S
GRAND ISLAND   MOCLDY    65  55  70 S14       30.02F
KANSAS CITY    CLOUDY    59  54  83 SE9       30.13S
WICHITA        PTCLDY    65  58  78 E10       30.05F
HAYS           MOCLDY    64  55  72 SE13      30.01F
LIBERAL        MOCLDY    68  61  77 S9        30.03S
GOODLAND       MOCLDY    67  63  87 S13       29.98F
$$



USA.gov is the U.S. government's official web portal to all federal, state and local government web resources and services.